FW4383 Weather Reports


Display with metric or nautical units.
time (UTC)temp
F
wind
direction
speed
MPH
gust
MPH
rain 1hr
in
rain 24hr
in
rain mn
in
humidity
%
barometer
mb
20260905054531 54 225 0.0 1.0 0.00 0.00 0.00 90 1018.4
20260905053036 54 225 0.0 0.0 0.00 0.00 0.00 89 1018.3
20260905051535 54 225 0.0 0.0 0.00 0.00 0.00 89 1018.4
20260905050030 54 225 0.0 0.0 0.00 0.00 0.00 88 1018.3
20260905044536 55 225 0.0 0.0 0.00 0.00 0.00 87 1018.2
20260905043107 55 225 0.0 2.0 0.00 0.00 0.00 85 1018.1
20260905040108 57 279 1.0 5.0 0.00 0.00 0.00 82 1017.9
20260905034537 56 304 2.0 5.0 0.00 0.00 0.00 84 1017.8
20260905033035 56 291 1.0 5.0 0.00 0.00 0.00 85 1017.6
20260905030033 57 247 0.0 0.0 0.00 0.00 0.00 80 1017.4
20260905024535 59 247 0.0 3.0 0.00 0.00 0.00 76 1017.3
20260905023037 60 253 0.0 4.0 0.00 0.00 0.00 72 1017.3
20260905020035 61 289 1.0 5.0 0.00 0.00 0.00 68 1017.0
20260905014541 63 298 3.0 8.0 0.00 0.00 0.00 65 1016.9
20260905013033 64 281 3.0 7.0 0.00 0.00 0.00 65 1016.7
20260905011610 64 276 4.0 10.0 0.00 0.00 0.00 66 1016.6
20260905004536 65 275 3.0 9.0 0.00 0.00 0.00 66 1016.6
20260905003107 65 300 1.0 8.0 0.00 0.00 0.00 68 1016.4
20260905000032 64 275 2.0 5.0 0.00 0.00 0.00 67 1016.3
20260904233034 64 242 1.0 5.0 0.00 0.00 0.00 67 1016.3
20260904231536 64 222 1.0 4.0 0.00 0.00 0.00 67 1016.2
20260904224534 66 209 0.0 6.0 0.00 0.00 0.00 61 1016.2
20260904223033 67 243 1.0 4.0 0.00 0.00 0.00 60 1016.0
20260904221643 67 305 1.0 4.0 0.00 0.00 0.00 64 1015.9
20260904214538 64 127 1.0 4.0 0.00 0.00 0.00 70 1015.9
20260904213032 64 180 0.0 2.0 0.00 0.00 0.00 66 1015.8
20260904210034 65 180 0.0 2.0 0.00 0.00 0.00 69 1015.8
20260904203110 64 324 0.0 3.0 0.00 0.00 0.00 68 1016.0
20260904194536 64 314 0.0 3.0 0.00 0.00 0.00 70 1016.3
20260904191537 64 28 1.0 4.0 0.00 0.00 0.00 72 1016.5
20260904190036 61 88 1.0 4.0 0.00 0.00 0.00 75 1016.6
20260904184535 59 143 0.0 3.0 0.00 0.00 0.00 76 1016.7
20260904183037 58 191 0.0 4.0 0.00 0.00 0.00 80 1016.7
20260904180035 57 126 1.0 4.0 0.00 0.00 0.00 82 1016.5
20260904174535 58 206 0.0 3.0 0.00 0.00 0.00 82 1016.6
20260904173036 58 225 0.0 1.0 0.00 0.00 0.00 81 1016.6
20260904170035 58 143 1.0 4.0 0.00 0.00 0.00 86 1016.5
20260904164535 57 146 1.0 4.0 0.00 0.00 0.00 87 1016.4
20260904163037 56 127 0.0 3.0 0.00 0.00 0.00 87 1016.5
20260904161533 56 85 0.0 1.0 0.00 0.00 0.00 89 1016.5
20260904154534 54 224 0.0 2.0 0.00 0.00 0.00 94 1016.5
20260904153143 53 265 0.0 2.0 0.00 0.00 0.00 96 1016.4
20260904151605 52 135 0.0 2.0 0.00 0.00 0.00 97 1016.3
20260904150035 51 135 0.0 3.0 0.00 0.00 0.00 96 1016.2
20260904144535 51 135 0.0 2.0 0.00 0.00 0.00 96 1016.0
20260904143038 50 135 0.0 2.0 0.00 0.00 0.00 96 1015.9
20260904141532 50 135 0.0 0.0 0.00 0.00 0.00 96 1015.7
20260904133036 50 135 0.0 0.0 0.00 0.00 0.00 95 1015.3
20260904131607 50 135 0.0 0.0 0.00 0.00 0.00 95 1015.2
20260904130031 50 135 0.0 0.0 0.00 0.00 0.00 95 1015.0
20260904124535 50 135 0.0 0.0 0.00 0.00 0.00 95 1015.0
20260904121536 50 135 0.0 0.0 0.00 0.00 0.00 95 1014.8
20260904113035 50 135 0.0 0.0 0.00 0.00 0.00 95 1014.6
20260904104536 50 135 0.0 0.0 0.00 0.00 0.00 95 1014.2
20260904103035 50 135 0.0 0.0 0.00 0.00 0.00 95 1014.0
20260904100034 49 135 0.0 2.0 0.00 0.00 0.00 95 1013.8
20260904094605 49 135 0.0 0.0 0.00 0.01 0.00 94 1013.7
20260904093034 49 135 0.0 0.0 0.00 0.01 0.00 94 1013.7
20260904091532 49 135 0.0 0.0 0.00 0.01 0.00 94 1013.7
20260904090035 49 135 0.0 2.0 0.00 0.01 0.00 94 1013.6
20260904083036 50 135 0.0 0.0 0.00 0.01 0.00 94 1013.4
20260904081536 50 135 0.0 0.0 0.00 0.01 0.00 94 1013.4
20260904080105 50 135 0.0 1.0 0.00 0.01 0.00 93 1013.5
20260904074606 50 135 0.0 3.0 0.00 0.01 0.00 93 1013.5
20260904073032 51 135 0.0 0.0 0.00 0.01 0.00 93 1013.5
20260904071619 51 135 0.0 0.0 0.00 0.01 0.00 92 1013.4
20260904070033 51 135 0.0 1.0 0.00 0.01 0.00 92 1013.3
20260904064606 51 165 0.0 3.0 0.00 0.01 0.01 92 1013.3
20260904063036 51 247 0.0 0.0 0.00 0.01 0.01 91 1013.3
20260904061536 52 247 0.0 0.0 0.00 0.01 0.01 91 1013.2